Grand Junction, CO

1:12 AM MDT on August 23, 2019 (GMT -0600)
Walker

Weather History for KGJT - May, 2019

Change the Weather History Date:

Tuesday, May 28, 2019

  Actual Average Record
Temperature  
Mean Temperature 53 °F 66 °F  
Max Temperature 64 °F 81 °F 96 °F (2000)
Min Temperature 42 °F 50 °F 35 °F (1908)
Degree Days  
Heating Degree Days 12 2  
Month to date heating degree days 249 148  
Since 1 July heating degree days 5646 5582  
Cooling Degree Days 0 3  
Month to date cooling degree days 11 38  
Year to date cooling degree days 12 41  
Growing Degree Days 4 (Base 50)    
Moisture  
Dew Point 39 °F    
Average Humidity 64    
Maximum Humidity 92    
Minimum Humidity 36    
Precipitation  
Precipitation 0.07 in 0.02 in 0.56 in (1924)
Month to date precipitation 0.79 0.81  
Year to date precipitation 5.84 3.76  
Snow  
Snow 0.00 in 0.00 in 0.00 in (2002)
Month to date snowfall 0.0 0.1  
Since 1 July snowfall 17.4 19.1  
Snow Depth 0.00 in    
Sea Level Pressure  
Sea Level Pressure 29.80 in    
Wind  
Wind Speed 7 mph (NW)    
Max Wind Speed 16 mph    
Max Gust Speed 23 mph    
Visibility 10 miles    
Events Rain    
T = Trace of Precipitation, MM = Missing Value Source: NWS Daily Summary

Daily Weather History Graph

Daily Weather History Graph

Search for Another Location

Airport or City:

Astronomy

May. 28, 2019 Rise Set
Actual Time 5:51 AM MDT 8:31 PM MDT
Civil Twilight 5:20 AM MDT 9:02 PM MDT
Nautical Twilight 4:41 AM MDT 9:41 PM MDT
Astronomical Twilight 3:57 AM MDT 10:25 PM MDT
Moon 3:02 AM MDT (5/28) 2:47 PM MDT (5/28)
Length of Visible Light 15h 41m
Length of Day
14h 39m
Waning Crescent, 31% of the Moon is Illuminated
May 28
Waning Crescent
Jun 3
New
Jun 10
First Quarter
Jun 17
Full
Jun 25
Last Quarter

Hourly Weather History & Observations

Time (MDT) Temp. Windchill Dew Point Humidity Pressure Visibility Wind Dir Wind Speed Gust Speed Precip Events Conditions
12:53 AM 44.1 °F 41.5 °F 37.0 °F 76% 29.75 in 10.0 mi SSE 4.6 mph - N/A   Partly Cloudy
1:53 AM 44.1 °F 40.8 °F 39.0 °F 82% 29.74 in 10.0 mi SSW 5.8 mph - N/A   Overcast
2:53 AM 44.1 °F - 39.9 °F 85% 29.74 in 10.0 mi Calm Calm - 0.02 in Rain Light Rain
3:53 AM 44.1 °F 40.8 °F 39.9 °F 85% 29.74 in 10.0 mi ENE 5.8 mph - 0.02 in   Overcast
4:53 AM 44.1 °F 42.5 °F 39.0 °F 82% 29.76 in 10.0 mi North 3.5 mph - 0.00 in Rain Light Rain
5:53 AM 43.0 °F 40.3 °F 39.0 °F 86% 29.81 in 10.0 mi NE 4.6 mph - 0.03 in Rain Light Rain
6:53 AM 45.0 °F - 39.9 °F 82% 29.81 in 10.0 mi Calm Calm - 0.00 in   Overcast
7:16 AM 45.0 °F 43.5 °F 39.9 °F 82% 29.90 in 10.0 mi WNW 3.5 mph - N/A   Overcast
7:34 AM 45.0 °F 42.6 °F 41.0 °F 86% 29.90 in 10.0 mi WNW 4.6 mph - N/A   Mostly Cloudy
7:53 AM 45.0 °F 41.8 °F 42.1 °F 90% 29.83 in 10.0 mi NW 5.8 mph - N/A   Overcast
8:53 AM 48.9 °F - 39.9 °F 71% 29.82 in 10.0 mi Calm Calm - N/A   Scattered Clouds
9:53 AM 53.1 °F - 39.9 °F 61% 29.81 in 10.0 mi ESE 4.6 mph - N/A   Mostly Cloudy
10:53 AM 53.1 °F - 37.9 °F 57% 29.82 in 10.0 mi WNW 6.9 mph - N/A   Mostly Cloudy
11:53 AM 55.0 °F - 37.9 °F 53% 29.81 in 10.0 mi WNW 8.1 mph - N/A   Partly Cloudy
12:53 PM 57.0 °F - 37.0 °F 47% 29.81 in 10.0 mi NW 10.4 mph - N/A   Overcast
1:53 PM 60.1 °F - 37.9 °F 44% 29.79 in 10.0 mi WNW 11.5 mph 19.6 mph N/A   Scattered Clouds
2:53 PM 61.0 °F - 37.0 °F 41% 29.78 in 10.0 mi West 12.7 mph 18.4 mph N/A   Scattered Clouds
3:53 PM 62.1 °F - 36.0 °F 38% 29.77 in 10.0 mi WNW 9.2 mph - N/A   Clear
4:53 PM 62.1 °F - 36.0 °F 38% 29.76 in 10.0 mi WNW 10.4 mph 18.4 mph N/A   Clear
5:53 PM 61.0 °F - 37.0 °F 41% 29.77 in 10.0 mi West 9.2 mph - N/A   Clear
6:53 PM 59.0 °F - 37.9 °F 46% 29.78 in 10.0 mi NW 10.4 mph - N/A   Clear
7:53 PM 59.0 °F - 39.0 °F 48% 29.80 in 10.0 mi NW 12.7 mph - N/A   Scattered Clouds
8:53 PM 57.0 °F - 39.0 °F 51% 29.81 in 10.0 mi North 6.9 mph - N/A   Scattered Clouds
9:53 PM 55.0 °F - 39.0 °F 55% 29.83 in 10.0 mi NE 13.8 mph - N/A   Overcast
10:53 PM 55.0 °F - 39.0 °F 55% 29.85 in 10.0 mi NE 8.1 mph - N/A   Overcast
11:53 PM 53.1 °F - 39.0 °F 59% 29.85 in 10.0 mi NNE 3.5 mph - N/A   Partly Cloudy